Powrót do katalogu

BRO-13

AktywnyNaukaSSO
NORAD 59107·PAYLOAD·🇫🇷 France

Wystrzelony Mar 4, 2024 z Vandenberg Space Force Base

Loading…

Następne Przeloty (najbliższe 24 godziny)

TLE

ŚwieżeSource: Space-Track

Epoka: Sep 14, 2026, 14:41 UTC

1 59107U 24043K   26257.61224919  .00000280  00000-0  29661-4 0  9999
2 59107  97.8614  28.9829 0010129  63.7116 296.5145 14.96768445137999

Śledź BRO-13 w czasie rzeczywistym z AllMySat

Download on the App Store